Location: Little Maitland River
(43.8022°N, 81.1549°W)
Time: 13:58:04
(UTC+00:00)

Cosmos 1980 Rocket - Pass Details

Date: 09 December 2025
Orbit: 830 x 847 km, 71.0° (Epoch: 19 January)

Event Time Altitude Azimuth Distance (km) Brightness Sun altitude
Exits shadow 10:46:35 23° 227° (SW) 1,713 3.5 -20.9°
Drops below altitude 10° 10:49:21 10° 201° (SSW) 2,428 4.5 -20.4°
Sets 10:52:06 0° 190° (S) 3,357 5.4 -20.0°
